星链-32149 (STARLINK-32149)

导读 | 豆包AI

STARLINK-32149是美国SpaceX公司于2024年7月28日发射的星链(Starlink)低轨卫星,归属星链第二代组网建设序列。作为星链全球卫星互联网星座的组成部分,它运行于近地轨道,通过星间链路与地面关口站协同,旨在为全球偏远区域、灾害应急场景及航空航运等领域,提供高速低延迟的宽带接入服务,推动星链星座覆盖规模与网络容量的持续拓展。

Basic Information
目录编号:
60292
目录名称:
STARLINK-32149
国际标识:
2024-132Q
轨道中心:
EARTH
卫星名称:
星链-32149 (STARLINK-32149)
卫星全名:
星链-32149 (STARLINK-32149)
卫星状态:
在轨 (已飞行642 天)
发射日期:
2024-07-28 UTC
国别 :
美国 (US)
星等 :
--
Orbit Information
数据来源 国际轨道数据 AOE轨道数据
星历时间 2026-04-30T20:29:45+0800
16小时前
查看轨道信息
2026-04-30T08:00:00+0800
1天前
查看轨道信息
半长轴 6853.456km 6853.367km
偏心率 0.0000962 0.0002356
轨道倾角 53.159° 53.159°
近地点辐角 91.627° 46.923°
升交点赤经 171.842° 174.270°
平近点角 268.484° 323.528°
近地点 474.659km 473.615km
远地点 475.979km 476.845km
周期 94.107分钟 94.106分钟
每日圈数 15.301654 15.30195
Detailed Information
卫星平台:
Starlink v2.0 mini
运营商:
太空探索技术公司
运营商所在国:
美国
制造商(研发单位):
太空探索技术公司
制造商所在国:
美国
使用方式:
暂无
Satellite Introduction
星链(Starlink)计划是由太空探索技术公司(SpaceX)提出的一个巨型低轨卫星互联网星座项目,计划在2019年至2024年间在太空搭建由约1.2万颗卫星组成的“星链”网络,其中1584颗将部署在地球上空550千米处的近地轨道,并从2020年开始工作。该卫星仍在工作。
2D Orbit Map
3D Orbit Map
Orbit Altitude Analysis Chart
Orbit Inclination Analysis Chart
Orbit Comprehensive Analysis Chart
View Comprehensive Chart